Flag for United Kingdom Weather past 2 weeks in Middlesbrough, England, United Kingdom

Now
57 °F

Passing clouds.


Feels Like: 56 °F
Forecast: 59 / 68 °F
Wind: 7 mph from South

Location: Tees-Side

Current Time: Aug 1, 2014 at 7:00:41 AM

Latest Report: Aug 1, 2014 at 6:20 AM


Visibility: 4 mi

Pressure: 29.74 "Hg

Humidity: 94%

Dew point: 55 °F

Location of MiddlesbroughLocation

Historic Weather in Middlesbrough — Graph

°F

Middlesbrough temperature yesterday

Maximum temperature yesterday: 72 °F (at 3:50 PM)
Minimum temperature yesterday: 59 °F (at 5:50 AM)
Average temperature yesterday: 66 °F

Past Weeks' High & Low Weather Summary

 TemperatureHumidityPressure
High82 °F (Jul 26, 3:50 PM)100% (Jul 17, 6:20 AM)30.30 "Hg (Jul 17, 6:20 AM)
Low52 °F (Jul 17, 5:50 AM)30% (Jul 26, 5:20 PM)29.74 "Hg (Jul 19, 5:50 PM)
Average67 °F71%30.02 "Hg
* Reported Jul 17 5:50 AM — Aug 1 5:50 AM, Middlesbrough, Weather by CustomWeather, © 2014

Note: Actual official high and low records may vary slightly from our data, if they occured in-between our weather recording intervals... More about our weather records

Advertising

Middlesbrough weather history for previous 24 hours

 ConditionsComfort  
Time TempWeatherWind HumidityBarometerVisibility
5:50 AM
Aug 1
59 °FPassing clouds.3 mph88%29.74 "Hg4 mi
11:20 PM
Jul 31
59 °FClear.8 mph82%29.80 "Hg10 mi
10:50 PM61 °FClear.7 mph77%29.80 "Hg10 mi
10:20 PM63 °FPassing clouds.6 mph73%29.80 "HgN/A
9:50 PM63 °FPassing clouds.5 mph73%29.80 "HgN/A
9:20 PM64 °FPassing clouds.6 mph68%29.80 "HgN/A
8:50 PM64 °FPassing clouds.12 mph68%29.80 "HgN/A
8:20 PM66 °FPassing clouds.14 mph64%29.80 "HgN/A
7:50 PM68 °FPassing clouds.10 mph60%29.80 "HgN/A
7:20 PM68 °FScattered clouds.14 mph60%29.80 "HgN/A
6:50 PM68 °FScattered clouds.13 mph56%29.80 "HgN/A
6:20 PM70 °FScattered clouds.13 mph53%29.80 "HgN/A
5:50 PM70 °FPassing clouds.14 mph50%29.80 "HgN/A
5:20 PM70 °FPassing clouds.14 mph50%29.80 "HgN/A
4:50 PM70 °FPassing clouds.17 mph50%29.80 "HgN/A
4:20 PM70 °FPassing clouds.16 mph53%29.83 "HgN/A
3:50 PM72 °FPassing clouds.17 mph50%29.83 "HgN/A
3:20 PM70 °FPassing clouds.17 mph53%29.83 "HgN/A
2:50 PM70 °FPassing clouds.17 mph53%29.83 "HgN/A
2:20 PM70 °FScattered clouds.15 mph53%29.83 "HgN/A
1:50 PM70 °FScattered clouds.17 mph53%29.83 "HgN/A
1:20 PM68 °FScattered clouds.16 mph60%29.83 "HgN/A
12:50 PM68 °FScattered clouds.13 mph60%29.83 "HgN/A
12:20 PM68 °FScattered clouds.15 mph56%29.83 "HgN/A
11:50 AM68 °FScattered clouds.16 mph56%29.83 "HgN/A
11:20 AM68 °FScattered clouds.14 mph56%29.83 "HgN/A
10:50 AM66 °FScattered clouds.12 mph60%29.86 "HgN/A
10:20 AM66 °FScattered clouds.12 mph60%29.86 "HgN/A
9:50 AM66 °FScattered clouds.12 mph60%29.83 "HgN/A
9:20 AM64 °FScattered clouds.8 mph78%29.83 "HgN/A
8:50 AM63 °FScattered clouds.9 mph83%29.83 "HgN/A
8:20 AM63 °FPartly sunny.10 mph88%29.83 "HgN/A
7:50 AM61 °FPartly sunny.12 mph94%29.83 "HgN/A
7:20 AM61 °FPartly sunny.13 mph88%29.83 "Hg6 mi
Weather by CustomWeather, © 2014

See weather overviewHow to use our weather pages